| time (UTC) | temp F | wind direction | speed MPH | gust MPH | rain 1hr in | rain 24hr in | rain mn in | humidity % | barometer mb |
| 20260508144736 | 44 | 2 | 9.0 | 16.0 | 0.00 | 0.00 | 0.00 | 41 | 1023.8 |
| 20260508142735 | 44 | 355 | 5.0 | 7.0 | 0.00 | 0.00 | 0.00 | 40 | 1023.7 |
| 20260508140735 | 45 | 344 | 8.0 | 13.0 | 0.00 | 0.00 | 0.00 | 40 | 1023.6 |
| 20260508134736 | 46 | 284 | 10.0 | 15.0 | 0.00 | 0.00 | 0.00 | 38 | 1023.7 |
| 20260508132736 | 44 | 287 | 8.0 | 15.0 | 0.00 | 0.00 | 0.00 | 38 | 1023.6 |
| 20260508130735 | 45 | 303 | 6.0 | 10.0 | 0.00 | 0.00 | 0.00 | 35 | 1023.5 |
| 20260508124735 | 45 | 293 | 7.0 | 14.0 | 0.00 | 0.00 | 0.00 | 34 | 1023.4 |
| 20260508122735 | 46 | 276 | 8.0 | 13.0 | 0.00 | 0.00 | 0.00 | 33 | 1023.1 |
| 20260508120735 | 45 | 283 | 8.0 | 12.0 | 0.00 | 0.00 | 0.00 | 35 | 1023.2 |
| 20260508114735 | 45 | 253 | 3.0 | 9.0 | 0.00 | 0.00 | 0.00 | 33 | 1023.1 |
| 20260508112736 | 46 | 324 | 8.0 | 13.0 | 0.00 | 0.00 | 0.00 | 33 | 1022.9 |
| 20260508110735 | 45 | 321 | 5.0 | 10.0 | 0.00 | 0.00 | 0.00 | 35 | 1022.9 |
| 20260508104735 | 44 | 14 | 5.0 | 10.0 | 0.00 | 0.00 | 0.00 | 36 | 1022.9 |
| 20260508102735 | 44 | 334 | 6.0 | 11.0 | 0.00 | 0.00 | 0.00 | 35 | 1022.7 |
| 20260508100735 | 44 | 32 | 2.0 | 5.0 | 0.00 | 0.00 | 0.00 | 34 | 1022.6 |
| 20260508094735 | 43 | 269 | 8.0 | 11.0 | 0.00 | 0.00 | 0.00 | 39 | 1022.6 |
| 20260508092734 | 44 | 329 | 5.0 | 11.0 | 0.00 | 0.00 | 0.00 | 39 | 1022.4 |
| 20260508090735 | 42 | 275 | 8.0 | 15.0 | 0.00 | 0.00 | 0.00 | 41 | 1022.4 |
| 20260508084734 | 43 | 337 | 3.0 | 7.0 | 0.00 | 0.00 | 0.00 | 40 | 1022.2 |
| 20260508082733 | 42 | 309 | 5.0 | 8.0 | 0.00 | 0.00 | 0.00 | 41 | 1022.2 |
| 20260508080735 | 43 | 356 | 4.0 | 8.0 | 0.00 | 0.00 | 0.00 | 41 | 1022.1 |
| 20260508074734 | 43 | 123 | 3.0 | 6.0 | 0.00 | 0.00 | 0.00 | 45 | 1022.0 |
| 20260508072734 | 43 | 78 | 3.0 | 10.0 | 0.00 | 0.00 | 0.00 | 44 | 1021.9 |
| 20260508070735 | 43 | 64 | 4.0 | 11.0 | 0.00 | 0.00 | 0.00 | 47 | 1021.8 |
| 20260508064734 | 41 | 72 | 6.0 | 9.0 | 0.00 | 0.00 | 0.00 | 50 | 1021.8 |
| 20260508062734 | 41 | 75 | 6.0 | 10.0 | 0.00 | 0.00 | 0.00 | 52 | 1021.8 |
| 20260508060735 | 39 | 51 | 4.0 | 7.0 | 0.00 | 0.00 | 0.00 | 54 | 1021.7 |
| 20260508054735 | 39 | 58 | 4.0 | 6.0 | 0.00 | 0.00 | 0.00 | 56 | 1021.5 |
| 20260508052734 | 37 | 129 | 2.0 | 4.0 | 0.00 | 0.00 | 0.00 | 60 | 1021.4 |
| 20260508050734 | 37 | 326 | 2.0 | 3.0 | 0.00 | 0.00 | 0.00 | 59 | 1021.3 |
| 20260508044734 | 35 | 67 | 2.0 | 4.0 | 0.00 | 0.00 | 0.00 | 62 | 1021.3 |
| 20260508040733 | 35 | 119 | 1.0 | 2.0 | 0.00 | 0.00 | 0.00 | 61 | 1021.1 |
| 20260508034734 | 34 | 323 | 1.0 | 2.0 | 0.00 | 0.00 | 0.00 | 64 | 1021.1 |
| 20260508032734 | 31 | 213 | 1.0 | 2.0 | 0.00 | 0.00 | 0.00 | 71 | 1021.0 |
| 20260508030734 | 29 | 263 | 3.0 | 4.0 | 0.00 | 0.00 | 0.00 | 76 | 1020.9 |
| 20260508024733 | 28 | 260 | 4.0 | 5.0 | 0.00 | 0.00 | 0.00 | 78 | 1020.9 |
| 20260508022732 | 27 | 241 | 2.0 | 4.0 | 0.00 | 0.00 | 0.00 | 80 | 1020.9 |
| 20260508020733 | 26 | 249 | 2.0 | 3.0 | 0.00 | 0.00 | 0.00 | 82 | 1020.7 |
| 20260508014734 | 26 | 250 | 2.0 | 3.0 | 0.00 | 0.00 | 0.00 | 86 | 1020.6 |
| 20260508012733 | 25 | 261 | 2.0 | 2.0 | 0.00 | 0.00 | 0.00 | 87 | 1020.5 |
| 20260508010734 | 25 | 224 | 2.0 | 4.0 | 0.00 | 0.00 | 0.00 | 87 | 1020.2 |
| 20260508004734 | 25 | 225 | 3.0 | 4.0 | 0.00 | 0.00 | 0.00 | 85 | 1019.9 |
| 20260508002733 | 25 | 242 | 3.0 | 4.0 | 0.00 | 0.00 | 0.00 | 86 | 1019.9 |
| 20260508000735 | 26 | 244 | 3.0 | 4.0 | 0.00 | 0.00 | 0.00 | 86 | 1019.7 |
| 20260507234734 | 26 | 189 | 1.0 | 2.0 | 0.00 | 0.00 | 0.00 | 84 | 1019.6 |
| 20260507232733 | 27 | 155 | 2.0 | 3.0 | 0.00 | 0.00 | 0.00 | 77 | 1019.3 |
| 20260507230733 | 27 | 282 | 2.0 | 3.0 | 0.00 | 0.00 | 0.00 | 80 | 1019.2 |
| 20260507224732 | 28 | 232 | 4.0 | 6.0 | 0.00 | 0.00 | 0.00 | 77 | 1019.0 |
| 20260507222733 | 28 | 234 | 3.0 | 4.0 | 0.00 | 0.00 | 0.00 | 76 | 1018.9 |
| 20260507220733 | 28 | 274 | 2.0 | 3.0 | 0.00 | 0.00 | 0.00 | 80 | 1018.7 |
| 20260507214732 | 29 | 81 | 1.0 | 1.0 | 0.00 | 0.00 | 0.00 | 77 | 1018.5 |
| 20260507212732 | 31 | 252 | 2.0 | 3.0 | 0.00 | 0.00 | 0.00 | 71 | 1018.3 |
| 20260507210732 | 29 | 281 | 2.0 | 3.0 | 0.00 | 0.00 | 0.00 | 74 | 1018.2 |
| 20260507204733 | 31 | 102 | 2.0 | 3.0 | 0.00 | 0.00 | 0.00 | 68 | 1018.0 |
| 20260507202732 | 34 | 93 | 3.0 | 4.0 | 0.00 | 0.00 | 0.00 | 59 | 1017.7 |
| 20260507194732 | 37 | 78 | 2.0 | 3.0 | 0.00 | 0.00 | 0.00 | 54 | 1017.1 |
| 20260507192732 | 37 | 21 | 4.0 | 5.0 | 0.00 | 0.00 | 0.00 | 53 | 1016.9 |
| 20260507190731 | 37 | 27 | 6.0 | 8.0 | 0.00 | 0.00 | 0.00 | 53 | 1016.7 |
| 20260507184732 | 39 | 30 | 6.0 | 9.0 | 0.00 | 0.00 | 0.00 | 49 | 1016.5 |
| 20260507182731 | 40 | 22 | 7.0 | 10.0 | 0.00 | 0.00 | 0.00 | 48 | 1016.3 |
| 20260507180730 | 41 | 22 | 9.0 | 13.0 | 0.00 | 0.00 | 0.00 | 46 | 1016.1 |
| 20260507174732 | 41 | 24 | 8.0 | 11.0 | 0.00 | 0.00 | 0.00 | 45 | 1016.0 |
| 20260507172731 | 42 | 21 | 9.0 | 11.0 | 0.00 | 0.00 | 0.00 | 45 | 1015.8 |
| 20260507171053 | 42 | 28 | 10.0 | 13.0 | 0.00 | 0.00 | 0.00 | 44 | 1015.7 |
| 20260507164732 | 42 | 21 | 9.0 | 13.0 | 0.00 | 0.00 | 0.00 | 44 | 1015.5 |
| 20260507162731 | 42 | 24 | 10.0 | 12.0 | 0.00 | 0.00 | 0.00 | 43 | 1015.4 |
| 20260507160732 | 42 | 38 | 9.0 | 12.0 | 0.00 | 0.00 | 0.00 | 43 | 1015.3 |
| 20260507154731 | 43 | 24 | 9.0 | 12.0 | 0.00 | 0.00 | 0.00 | 43 | 1015.1 |
| 20260507152730 | 42 | 30 | 9.0 | 12.0 | 0.00 | 0.00 | 0.00 | 44 | 1015.1 |
| 20260507150732 | 43 | 30 | 10.0 | 13.0 | 0.00 | 0.00 | 0.00 | 43 | 1014.9 |